Time,TemperatureF,DewpointF,PressureIn,WindDirection,WindDirectionDegrees,WindSpeedMPH,WindSpeedGustMPH,Humidity,HourlyPrecipIn,Conditions,Clouds,dailyrainin,SoftwareType,DateUTC
2013-01-26 00:03:00,8.0,6.0,30.07,SSW,201,0.0,3.0,90,0.00,,,0.00,,2013-01-26 05:03:00,
2013-01-26 00:12:00,8.0,6.0,30.07,SSW,201,0.0,3.0,90,0.00,,,0.00,,2013-01-26 05:12:00,
2013-01-26 00:23:00,8.0,6.0,30.07,SSW,201,0.0,3.0,90,0.00,,,0.00,,2013-01-26 05:23:00,
2013-01-26 00:33:00,9.0,7.0,30.08,SSW,203,0.0,1.0,91,0.00,,,0.00,,2013-01-26 05:33:00,
2013-01-26 00:42:00,9.0,7.0,30.08,SSW,203,0.0,1.0,91,0.00,,,0.00,,2013-01-26 05:42:00,
2013-01-26 00:53:00,10.0,8.0,30.08,SSW,203,0.0,0.0,91,0.00,,,0.00,,2013-01-26 05:53:00,
2013-01-26 01:03:00,11.0,9.0,30.08,SW,226,0.0,1.0,91,0.00,,,0.00,,2013-01-26 06:03:00,
2013-01-26 01:12:00,11.0,9.0,30.08,SW,226,0.0,1.0,91,0.00,,,0.00,,2013-01-26 06:12:00,
2013-01-26 01:21:00,11.0,9.0,30.07,SW,226,0.0,0.0,91,0.00,,,0.00,,2013-01-26 06:21:00,
2013-01-26 01:32:00,11.0,9.0,30.07,SE,143,0.0,0.0,91,0.00,,,0.00,,2013-01-26 06:32:00,
2013-01-26 01:42:00,11.0,9.0,30.07,SE,143,0.0,0.0,91,0.00,,,0.00,,2013-01-26 06:42:00,
2013-01-26 01:52:00,11.0,9.0,30.07,SE,143,0.0,0.0,91,0.00,,,0.00,,2013-01-26 06:52:00,
2013-01-26 02:02:00,12.0,10.0,30.06,SE,143,0.0,0.0,92,0.00,,,0.00,,2013-01-26 07:02:00,
2013-01-26 02:12:00,12.0,10.0,30.06,SE,143,0.0,0.0,92,0.00,,,0.00,,2013-01-26 07:12:00,
2013-01-26 02:22:00,12.0,10.0,30.06,SE,143,0.0,0.0,92,0.00,,,0.00,,2013-01-26 07:22:00,
2013-01-26 02:33:00,12.0,10.0,30.06,ESE,108,0.0,1.0,91,0.00,,,0.00,,2013-01-26 07:33:00,
2013-01-26 02:42:00,12.0,10.0,30.06,ESE,108,0.0,1.0,91,0.00,,,0.00,,2013-01-26 07:42:00,
2013-01-26 02:52:00,12.0,10.0,30.06,ESE,110,0.0,1.0,91,0.00,,,0.00,,2013-01-26 07:52:00,
2013-01-26 03:02:00,12.0,10.0,30.06,NNW,340,0.0,1.0,91,0.00,,,0.00,,2013-01-26 08:02:00,
2013-01-26 03:11:00,12.0,10.0,30.06,NNW,340,0.0,1.0,91,0.00,,,0.00,,2013-01-26 08:11:00,
2013-01-26 03:22:00,12.0,10.0,30.06,ENE,60,0.0,1.0,91,0.00,,,0.00,,2013-01-26 08:22:00,
2013-01-26 03:32:00,13.0,11.0,30.07,ESE,115,0.0,1.0,91,0.00,,,0.00,,2013-01-26 08:32:00,
2013-01-26 03:42:00,13.0,11.0,30.07,ESE,115,0.0,1.0,91,0.00,,,0.00,,2013-01-26 08:42:00,
2013-01-26 03:53:00,13.0,11.0,30.07,ESE,109,0.0,1.0,92,0.00,,,0.00,,2013-01-26 08:53:00,
2013-01-26 04:02:00,13.0,11.0,30.07,East,84,0.0,1.0,92,0.00,,,0.00,,2013-01-26 09:02:00,
2013-01-26 04:11:00,13.0,11.0,30.07,East,84,0.0,1.0,92,0.00,,,0.00,,2013-01-26 09:11:00,
2013-01-26 04:22:00,13.0,11.0,30.08,ESE,110,0.0,1.0,92,0.00,,,0.00,,2013-01-26 09:22:00,
2013-01-26 04:32:00,13.0,11.0,30.08,ESE,119,0.0,1.0,92,0.00,,,0.00,,2013-01-26 09:32:00,
2013-01-26 04:42:00,13.0,11.0,30.08,ESE,119,0.0,1.0,92,0.00,,,0.00,,2013-01-26 09:42:00,
2013-01-26 04:51:00,14.0,12.0,30.09,ESE,110,0.0,1.0,92,0.00,,,0.00,,2013-01-26 09:51:00,
2013-01-26 05:01:00,14.0,12.0,30.09,ESE,110,0.0,0.0,92,0.00,,,0.00,,2013-01-26 10:01:00,
2013-01-26 05:12:00,14.0,12.0,30.09,ESE,110,0.0,0.0,92,0.00,,,0.00,,2013-01-26 10:12:00,
2013-01-26 05:21:00,14.0,12.0,30.09,ESE,112,0.0,1.0,92,0.00,,,0.00,,2013-01-26 10:21:00,
2013-01-26 05:32:00,14.0,12.0,30.09,East,97,1.0,2.0,92,0.00,,,0.00,,2013-01-26 10:32:00,
2013-01-26 05:42:00,14.0,12.0,30.09,East,97,1.0,2.0,92,0.00,,,0.00,,2013-01-26 10:42:00,
2013-01-26 05:52:00,14.0,12.0,30.10,ENE,57,0.0,2.0,92,0.00,,,0.00,,2013-01-26 10:52:00,
2013-01-26 06:02:00,14.0,12.0,30.10,NE,53,1.0,2.0,92,0.00,,,0.00,,2013-01-26 11:02:00,
2013-01-26 06:12:00,14.0,12.0,30.10,NE,53,1.0,2.0,92,0.00,,,0.00,,2013-01-26 11:12:00,
2013-01-26 06:22:00,14.0,12.0,30.11,NE,43,0.0,2.0,92,0.00,,,0.00,,2013-01-26 11:22:00,
2013-01-26 06:32:00,14.0,12.0,30.12,ENE,77,0.0,1.0,92,0.00,,,0.00,,2013-01-26 11:32:00,
2013-01-26 06:42:00,14.0,12.0,30.12,ENE,77,0.0,1.0,92,0.00,,,0.00,,2013-01-26 11:42:00,
2013-01-26 06:52:00,13.0,11.0,30.13,ESE,111,0.0,2.0,92,0.00,,,0.00,,2013-01-26 11:52:00,
2013-01-26 07:02:00,13.0,11.0,30.14,ESE,111,0.0,2.0,92,0.00,,,0.00,,2013-01-26 12:02:00,
2013-01-26 07:12:00,13.0,11.0,30.14,ESE,111,0.0,2.0,92,0.00,,,0.00,,2013-01-26 12:12:00,
2013-01-26 07:23:00,12.0,10.0,30.14,SSE,149,0.0,1.0,92,0.00,,,0.00,,2013-01-26 12:23:00,
2013-01-26 07:33:00,11.0,9.0,30.15,SSW,195,0.0,1.0,92,0.00,,,0.00,,2013-01-26 12:33:00,
2013-01-26 07:42:00,11.0,9.0,30.15,SSW,195,0.0,1.0,92,0.00,,,0.00,,2013-01-26 12:42:00,
2013-01-26 07:52:00,11.0,9.0,30.15,SSW,195,0.0,1.0,92,0.00,,,0.00,,2013-01-26 12:52:00,
2013-01-26 08:04:00,12.0,10.0,30.16,ESE,113,0.0,2.0,93,0.00,,,0.00,,2013-01-26 13:04:00,
2013-01-26 08:12:00,12.0,10.0,30.16,ESE,113,0.0,2.0,93,0.00,,,0.00,,2013-01-26 13:12:00,
2013-01-26 08:22:00,13.0,11.0,30.17,East,97,0.0,2.0,92,0.00,,,0.00,,2013-01-26 13:22:00,
2013-01-26 08:33:00,13.0,11.0,30.17,East,79,0.0,1.0,92,0.00,,,0.00,,2013-01-26 13:33:00,
2013-01-26 08:42:00,13.0,11.0,30.17,East,79,0.0,1.0,92,0.00,,,0.00,,2013-01-26 13:42:00,
2013-01-26 08:52:00,13.0,11.0,30.18,East,79,0.0,1.0,92,0.00,,,0.00,,2013-01-26 13:52:00,
2013-01-26 09:03:00,14.0,12.0,30.18,ENE,69,1.0,1.0,91,0.00,,,0.00,,2013-01-26 14:03:00,
2013-01-26 09:12:00,14.0,12.0,30.18,ENE,69,1.0,1.0,91,0.00,,,0.00,,2013-01-26 14:12:00,
2013-01-26 09:22:00,15.0,13.0,30.18,SE,132,0.0,2.0,90,0.00,,,0.00,,2013-01-26 14:22:00,
2013-01-26 09:32:00,15.0,13.0,30.18,SE,132,0.0,2.0,90,0.00,,,0.00,,2013-01-26 14:32:00,
2013-01-26 09:43:00,15.0,13.0,30.18,SE,132,0.0,2.0,90,0.00,,,0.00,,2013-01-26 14:43:00,
2013-01-26 09:52:00,17.0,13.0,30.18,SSE,153,4.0,8.0,83,0.00,,,0.00,,2013-01-26 14:52:00,
2013-01-26 10:03:00,17.0,12.0,30.19,SE,131,7.0,11.0,79,0.00,,,0.00,,2013-01-26 15:03:00,
2013-01-26 10:12:00,17.0,12.0,30.19,SE,131,7.0,11.0,79,0.00,,,0.00,,2013-01-26 15:12:00,
2013-01-26 10:22:00,18.0,12.0,30.19,SSE,158,6.0,10.0,77,0.00,,,0.00,,2013-01-26 15:22:00,
2013-01-26 10:33:00,18.0,12.0,30.20,SSE,155,4.0,9.0,76,0.00,,,0.00,,2013-01-26 15:33:00,
2013-01-26 10:43:00,18.0,12.0,30.20,SSE,155,4.0,9.0,76,0.00,,,0.00,,2013-01-26 15:43:00,
2013-01-26 10:52:00,19.0,12.0,30.21,SE,124,3.0,7.0,74,0.00,,,0.00,,2013-01-26 15:52:00,
2013-01-26 11:02:00,19.0,12.0,30.22,SSE,166,4.0,10.0,73,0.00,,,0.00,,2013-01-26 16:02:00,
2013-01-26 11:12:00,19.0,12.0,30.22,SSE,166,4.0,10.0,73,0.00,,,0.00,,2013-01-26 16:12:00,
2013-01-26 11:22:00,20.0,12.0,30.22,SSW,203,4.0,9.0,71,0.00,,,0.00,,2013-01-26 16:22:00,
2013-01-26 11:33:00,20.0,11.0,30.23,SE,135,4.0,9.0,69,0.00,,,0.00,,2013-01-26 16:33:00,
2013-01-26 11:42:00,20.0,11.0,30.23,SE,135,4.0,9.0,69,0.00,,,0.00,,2013-01-26 16:42:00,
2013-01-26 11:53:00,20.0,11.0,30.22,SE,128,5.0,11.0,69,0.00,,,0.00,,2013-01-26 16:53:00,
2013-01-26 12:03:00,20.0,11.0,30.21,SE,143,6.0,11.0,69,0.00,,,0.00,,2013-01-26 17:03:00,
2013-01-26 12:13:00,20.0,11.0,30.21,SE,143,6.0,11.0,69,0.00,,,0.00,,2013-01-26 17:13:00,
2013-01-26 12:22:00,20.0,11.0,30.20,ESE,113,5.0,11.0,69,0.00,,,0.00,,2013-01-26 17:22:00,
2013-01-26 12:33:00,21.0,12.0,30.18,South,169,4.0,8.0,68,0.00,,,0.00,,2013-01-26 17:33:00,
2013-01-26 12:42:00,21.0,12.0,30.18,South,169,4.0,8.0,68,0.00,,,0.00,,2013-01-26 17:42:00,
2013-01-26 12:53:00,22.0,13.0,30.18,ENE,64,3.0,7.0,68,0.00,,,0.00,,2013-01-26 17:53:00,
2013-01-26 13:03:00,22.0,12.0,30.19,SE,133,6.0,9.0,66,0.00,,,0.00,,2013-01-26 18:03:00,
2013-01-26 13:12:00,22.0,12.0,30.19,SE,133,6.0,9.0,66,0.00,,,0.00,,2013-01-26 18:12:00,
2013-01-26 13:22:00,22.0,13.0,30.19,East,93,6.0,9.0,68,0.00,,,0.00,,2013-01-26 18:22:00,
2013-01-26 13:33:00,22.0,13.0,30.18,East,86,6.0,9.0,67,0.00,,,0.00,,2013-01-26 18:33:00,
2013-01-26 13:42:00,22.0,13.0,30.18,East,86,6.0,9.0,67,0.00,,,0.00,,2013-01-26 18:42:00,
2013-01-26 13:53:00,22.0,12.0,30.19,ESE,112,7.0,12.0,65,0.00,,,0.00,,2013-01-26 18:53:00,
2013-01-26 14:03:00,22.0,13.0,30.19,ENE,75,6.0,14.0,67,0.00,,,0.00,,2013-01-26 19:03:00,
2013-01-26 14:12:00,22.0,13.0,30.19,ENE,75,6.0,14.0,67,0.00,,,0.00,,2013-01-26 19:12:00,
2013-01-26 14:22:00,23.0,13.0,30.19,East,100,10.0,14.0,64,0.00,,,0.00,,2013-01-26 19:22:00,
2013-01-26 14:32:00,23.0,13.0,30.19,ESE,113,9.0,14.0,65,0.00,,,0.00,,2013-01-26 19:32:00,
2013-01-26 14:42:00,23.0,13.0,30.19,ESE,113,9.0,14.0,65,0.00,,,0.00,,2013-01-26 19:42:00,
2013-01-26 14:53:00,23.0,12.0,30.20,SE,131,7.0,16.0,63,0.00,,,0.00,,2013-01-26 19:53:00,
2013-01-26 15:02:00,23.0,13.0,30.20,SE,127,6.0,16.0,64,0.00,,,0.00,,2013-01-26 20:02:00,
2013-01-26 15:11:00,23.0,13.0,30.20,SE,127,6.0,16.0,64,0.00,,,0.00,,2013-01-26 20:11:00,
2013-01-26 15:22:00,24.0,13.0,30.21,ESE,115,9.0,13.0,62,0.00,,,0.00,,2013-01-26 20:22:00,
2013-01-26 15:32:00,24.0,13.0,30.21,ESE,120,10.0,13.0,61,0.00,,,0.00,,2013-01-26 20:32:00,
2013-01-26 15:42:00,24.0,13.0,30.21,ESE,120,10.0,13.0,61,0.00,,,0.00,,2013-01-26 20:42:00,
2013-01-26 15:52:00,24.0,13.0,30.21,ESE,120,10.0,13.0,61,0.00,,,0.00,,2013-01-26 20:52:00,
2013-01-26 16:02:00,25.0,13.0,30.21,ESE,121,8.0,16.0,61,0.00,,,0.00,,2013-01-26 21:02:00,
2013-01-26 16:12:00,25.0,13.0,30.21,ESE,121,8.0,16.0,61,0.00,,,0.00,,2013-01-26 21:12:00,
2013-01-26 16:23:00,25.0,12.0,30.21,SE,124,10.0,17.0,58,0.00,,,0.00,,2013-01-26 21:23:00,
2013-01-26 16:32:00,25.0,12.0,30.22,SE,131,6.0,12.0,58,0.00,,,0.00,,2013-01-26 21:32:00,
2013-01-26 16:43:00,25.0,12.0,30.22,SE,131,6.0,12.0,58,0.00,,,0.00,,2013-01-26 21:43:00,
2013-01-26 16:52:00,25.0,12.0,30.22,SE,139,10.0,16.0,58,0.00,,,0.00,,2013-01-26 21:52:00,
2013-01-26 17:02:00,25.0,12.0,30.22,SE,139,10.0,16.0,58,0.00,,,0.00,,2013-01-26 22:02:00,
2013-01-26 17:12:00,25.0,12.0,30.22,SE,139,10.0,16.0,58,0.00,,,0.00,,2013-01-26 22:12:00,
2013-01-26 17:22:00,24.0,12.0,30.24,SE,142,5.0,10.0,59,0.00,,,0.00,,2013-01-26 22:22:00,
2013-01-26 17:32:00,24.0,12.0,30.24,SE,136,8.0,12.0,60,0.00,,,0.00,,2013-01-26 22:32:00,
2013-01-26 17:42:00,24.0,12.0,30.24,SE,136,8.0,12.0,60,0.00,,,0.00,,2013-01-26 22:42:00,
2013-01-26 17:52:00,23.0,12.0,30.25,SE,141,3.0,7.0,62,0.00,,,0.00,,2013-01-26 22:52:00,
2013-01-26 18:02:00,23.0,13.0,30.26,SE,141,2.0,4.0,65,0.00,,,0.00,,2013-01-26 23:02:00,
2013-01-26 18:12:00,23.0,13.0,30.26,SE,141,2.0,4.0,65,0.00,,,0.00,,2013-01-26 23:12:00,
2013-01-26 18:22:00,23.0,13.0,30.26,SE,141,2.0,4.0,65,0.00,,,0.00,,2013-01-26 23:22:00,
2013-01-26 18:32:00,22.0,12.0,30.27,ESE,117,2.0,4.0,66,0.00,,,0.00,,2013-01-26 23:32:00,
2013-01-26 18:42:00,22.0,12.0,30.27,ESE,117,2.0,4.0,66,0.00,,,0.00,,2013-01-26 23:42:00,
2013-01-26 18:52:00,22.0,13.0,30.27,ESE,120,1.0,4.0,68,0.00,,,0.00,,2013-01-26 23:52:00,
2013-01-26 19:02:00,21.0,12.0,30.29,SE,129,0.0,2.0,69,0.00,,,0.00,,2013-01-27 00:02:00,
2013-01-26 19:12:00,21.0,12.0,30.29,SE,129,0.0,2.0,69,0.00,,,0.00,,2013-01-27 00:12:00,
2013-01-26 19:22:00,21.0,13.0,30.29,SE,141,1.0,3.0,70,0.00,,,0.00,,2013-01-27 00:22:00,
2013-01-26 19:32:00,21.0,12.0,30.29,SE,130,1.0,3.0,69,0.00,,,0.00,,2013-01-27 00:32:00,
2013-01-26 19:42:00,21.0,12.0,30.29,SE,130,1.0,3.0,69,0.00,,,0.00,,2013-01-27 00:42:00,
2013-01-26 19:51:00,21.0,12.0,30.29,South,172,0.0,2.0,69,0.00,,,0.00,,2013-01-27 00:51:00,
2013-01-26 20:02:00,20.0,12.0,30.30,South,184,0.0,1.0,70,0.00,,,0.00,,2013-01-27 01:02:00,
2013-01-26 20:11:00,20.0,12.0,30.30,South,184,0.0,1.0,70,0.00,,,0.00,,2013-01-27 01:11:00,
2013-01-26 20:22:00,19.0,11.0,30.31,South,184,0.0,1.0,72,0.00,,,0.00,,2013-01-27 01:22:00,
2013-01-26 20:32:00,18.0,11.0,30.31,South,184,0.0,0.0,73,0.00,,,0.00,,2013-01-27 01:32:00,
2013-01-26 20:42:00,18.0,11.0,30.31,South,184,0.0,0.0,73,0.00,,,0.00,,2013-01-27 01:42:00,
2013-01-26 20:52:00,18.0,11.0,30.32,South,184,0.0,0.0,74,0.00,,,0.00,,2013-01-27 01:52:00,
2013-01-26 21:01:00,18.0,11.0,30.33,South,184,0.0,0.0,75,0.00,,,0.00,,2013-01-27 02:01:00,
2013-01-26 21:12:00,18.0,11.0,30.33,South,184,0.0,0.0,75,0.00,,,0.00,,2013-01-27 02:12:00,
2013-01-26 21:22:00,17.0,11.0,30.33,South,184,0.0,0.0,76,0.00,,,0.00,,2013-01-27 02:22:00,
2013-01-26 21:32:00,17.0,11.0,30.34,SSW,207,0.0,1.0,76,0.00,,,0.00,,2013-01-27 02:32:00,
2013-01-26 21:42:00,17.0,11.0,30.34,SSW,207,0.0,1.0,76,0.00,,,0.00,,2013-01-27 02:42:00,
2013-01-26 21:52:00,16.0,10.0,30.34,SSW,203,2.0,3.0,77,0.00,,,0.00,,2013-01-27 02:52:00,
2013-01-26 22:02:00,14.0,9.0,30.35,SSW,201,0.0,1.0,79,0.00,,,0.00,,2013-01-27 03:02:00,
2013-01-26 22:11:00,14.0,9.0,30.35,SSW,201,0.0,1.0,79,0.00,,,0.00,,2013-01-27 03:11:00,
2013-01-26 22:21:00,14.0,9.0,30.35,SSW,201,0.0,1.0,79,0.00,,,0.00,,2013-01-27 03:21:00,
2013-01-26 22:32:00,14.0,10.0,30.37,SSW,201,0.0,1.0,83,0.00,,,0.00,,2013-01-27 03:32:00,
2013-01-26 22:42:00,14.0,10.0,30.37,SSW,201,0.0,1.0,83,0.00,,,0.00,,2013-01-27 03:42:00,
2013-01-26 22:52:00,13.0,9.0,30.36,SSW,202,0.0,1.0,82,0.00,,,0.00,,2013-01-27 03:52:00,
2013-01-26 23:02:00,13.0,9.0,30.37,SSW,192,1.0,2.0,83,0.00,,,0.00,,2013-01-27 04:02:00,
2013-01-26 23:12:00,13.0,9.0,30.37,SSW,192,1.0,2.0,83,0.00,,,0.00,,2013-01-27 04:12:00,
2013-01-26 23:22:00,12.0,8.0,30.38,SSW,202,1.0,2.0,84,0.00,,,0.00,,2013-01-27 04:22:00,
2013-01-26 23:32:00,12.0,8.0,30.38,SSW,211,0.0,1.0,84,0.00,,,0.00,,2013-01-27 04:32:00,
2013-01-26 23:42:00,12.0,8.0,30.38,SSW,211,0.0,1.0,84,0.00,,,0.00,,2013-01-27 04:42:00,
2013-01-26 23:51:00,11.0,7.0,30.39,SSW,211,0.0,0.0,84,0.00,,,0.00,,2013-01-27 04:51:00,